Showing default

NUSAT-35 (WILLIAMINA), 55048

Orbit data source: Space-Track

NUSAT-35 (WILLIAMINA), 55048 is a payload satellite owned by URUGUS S.A. (AR) in SSO that was launched on Tue, 03 Jan 2023 UTC via an FALCON 9 launch vehicle from the Air Force Eastern Test Range (AFETR). Payload-class satellites include a variety of spacecraft equipped with specific instruments for various scientific and technological missions. These include communications satellites like Starlink; space stations such as the ISS; scientific satellites like the Hubble; Earth observation satellites from companies like Planet Labs, Umbra, and HawkEye 360; GPS; miniature CubeSats for education and research; and military/defense satellites.

Loading next visibility...
Identifier
55048, 2023-001AR
Orbit
SSO
Country
Flag of ARAR / ARGN
Related business
Manufacturer
URUGUS S.A.
Mission
Operational Commercial Imaging
Bus & Motor
NEWSAT V, Unknown motor
Mass
41.5 kg wet, 38.5 kg dry
Launch date (UTC)
2023-01-03 (3 years ago)
Launch vehicle
FALCON 9
Launch site
Air Force Eastern Test Range (AFETR)
Object type
Payload
Rocket body
Debris
Shape & HBR
Box, 1.0 m
Radar Cross Section
0.542 m², Medium (>0.1 m² and < 1m²)

Expand to show TLE details & history
Last TLE update: 8 hours ago

TLE from 8 hours ago
0 NUSAT-35 (WILLIAMINA)
1 55048U 23001AR  26150.95337126  .00018267  00000-0  54467-3 0  9991
2 55048  97.1866 204.1286 0012323 155.8369 204.3455 15.34632490189763
Epoch: 2026-05-30T22:52Z
TLE epoch observation values (Epoch: 2026-05-30T22:52:51.276Z)
Latitude
-0.00006°
Longitude
-27.54705°
Altitude
472.812 km
Speed
7.625 km/s
True Right ascension
13h 36m 30s
True Declination
0° 00' 00"
Sunlit
Object was in full shadow at epoch
Visualization orbit readout
Latitude
Unknown
Longitude
Unknown
Altitude
Unknown
Speed
Unknown
Apparent Right ascension
Unknown
Apparent Declination
Unknown
Sunlit
N/A
Visualization observer readout
Local Sidereal Time
16:24:13
Azimuth
Unknown
Elevation
Unknown
Doppler factor
Unknown
Orbital elements
Apogee altitude
467.375 km
Perigee altitude
450.524 km
Semi-major axis
6,837.086 km
Eccentricity
0.00123
Inclination
97.1866°
RAAN
204.1286°
Arg. of periapsis
155.8369°
True anomaly
204.28737°
Mean anomaly
204.3455°
Eccentric anomaly
204.31643°
Mean motion
3.83916 °/min
Orbital period
93.77 mins
BSTAR
0.00054467
Loading maneuver chart data...
Computing Atmospheric mass density...

Documentation

Showing up to 5 results
|